星链-5233 (STARLINK-5233 )

导读

STARLINK-5233是美国太空探索技术公司星链互联网卫星星座的一员,于2022年10月28日发射升空。星链计划旨在构建全球卫星互联网,为偏远地区等提供高速网络接入服务,该卫星入轨后将补充星座网络容量,提升服务覆盖范围与稳定性,支撑星链低轨卫星网络的运行与服务能力扩展。

Basic Information
目录编号:
54160
目录名称:
STARLINK-5233
国际标识:
2022-141D
轨道中心:
EARTH
卫星名称:
星链-5233
卫星全名:
星链-5233 (STARLINK-5233 )
卫星状态:
在轨 (已飞行1414 天)
发射日期:
2022-10-28 UTC
国别 :
美国 (US)
星等 :
--
This satellite is enrolled in the Space Conjunction Data Service (SCDS) and the current flight risk assessment level is: No High Risk
Orbit Information
数据来源 国际轨道数据 AOE轨道数据
星历时间 2026-09-09T15:47:19+0800
2天前
查看轨道信息
2026-09-04T23:00:00+0800
6天前
查看轨道信息
半长轴 6848.866km 6848.861km
偏心率 0.0001361 0.0001323
轨道倾角 53.159° 53.158°
近地点辐角 78.346° 73.025°
升交点赤经 214.870° 236.751°
平近点角 281.769° 278.813°
近地点 469.796km 469.817km
远地点 471.662km 471.631km
周期 94.013分钟 94.013分钟
每日圈数 15.317038 15.317054
Detailed Information
固有亮度:
5
最大亮度:
2.5
卫星平台:
Starlink v1.5
覆盖范围:
全球
运营商:
太空探索技术公司
运营商所在国:
美国
制造商(研发单位):
太空探索技术公司
制造商所在国:
美国
使用方式:
暂无
Satellite Introduction
星链(Starlink)计划是由太空探索技术公司(SpaceX)提出的一个巨型低轨卫星互联网星座项目,计划在2019年至2024年间在太空搭建由约1.2万颗卫星组成的“星链”网络,其中1584颗将部署在地球上空550千米处的近地轨道,并从2020年开始工作。该卫星仍在工作。
2D Orbit Map
3D Orbit Map
Orbit Altitude Analysis Chart
Orbit Inclination Analysis Chart
Orbit Comprehensive Analysis Chart
View Comprehensive Chart
Conjunction Data List
Event ID Objects TCA Miss Dist (km) Collision Risk Probability Collision Risk Index (CRI) Action
CDM_260907-144205-416006-264226
2026-09-07T
14:42:21+0000
1.965 km
极远距离
2.686815E-6 低风险 0.44
CDM_260912-134305-416006-904121
2026-09-12T
13:43:14+0000
2.091 km
极远距离
2.154472E-6 低风险 0.42
Miss Distance Evolution Trend with All Objects
Collision Probability Evolution Trend with All Objects